Date String (YYYY-MM-DD hh:mm:ss) UTC,Instrument flags,absolute air pressure of the measurement (hPa),sample flow rate (lpm),inlet stack bypass flow (lpm),air temperature of the measurement (°C),ambient temperature measured by the external sensor (°C),aerosol sample conditioner tube jacket temperature (°C),OPC LED temperature (°C),internal box temperature (°C),relative humidity of the measurement (%),span deviation,mass concentration of particles derived from Lorenz-Mie calculation of OPC scattering (μg/m³),mass concentration of particles derived from Lorenz-Mie calculation of OPC scattering (μg/m³),mass concentration of particles derived from Lorenz-Mie calculation of OPC scattering (μg/m³)
DateTimeUTC,F1_M11,P_M11,Q1_M11,Q2_M11,T1_M11,T2_M11,T3_M11,T4_M11,T5_M11,U1_M11,ZSPAN_M11,X2_M11,X0_M11,X1_M11
2023-11-05 05:00:00,SystemResetWarning,0831.3,5.00,000.00,028.4,027.4,000.0,036.7,029.8,12.7,0000.0,0002.33,0008.39,0001.56
2023-11-05 05:01:00,SystemResetWarning,0831.3,5.00,000.00,028.4,027.4,000.0,036.8,029.8,12.6,0000.0,0002.31,0008.09,0001.56
2023-11-05 05:02:00,SystemResetWarning,0831.3,5.00,000.00,028.4,027.4,000.0,036.8,029.7,12.7,0000.0,0002.25,0007.97,0001.55
2023-11-05 05:03:00,SystemResetWarning,0831.3,5.00,000.00,028.4,027.4,000.0,036.8,029.8,12.5,0000.0,0002.20,0007.95,0001.54
2023-11-05 05:04:00,SystemResetWarning,0831.3,5.00,000.00,028.4,027.3,000.0,036.7,029.8,12.5,0000.0,0002.23,0008.32,0001.54
2023-11-05 05:05:00,SystemResetWarning,0831.2,5.00,000.00,028.4,027.4,000.0,036.7,029.8,12.5,0000.0,0002.19,0008.78,0001.53
2023-11-05 05:06:00,SystemResetWarning,0831.2,5.00,000.00,028.4,027.4,000.0,036.8,029.7,12.5,0000.0,0002.15,0007.55,0001.52
2023-11-05 05:07:00,SystemResetWarning,0831.2,5.00,000.00,028.4,027.4,000.0,036.8,029.7,12.6,0000.0,0002.17,0007.17,0001.51
2023-11-05 05:08:00,SystemResetWarning,0831.2,4.99,000.00,028.4,027.3,000.0,036.8,029.7,12.6,0000.0,0002.17,0007.37,0001.50
2023-11-05 05:09:00,SystemResetWarning,0831.1,5.00,000.00,028.4,027.3,000.0,036.8,029.7,12.5,0000.0,0002.17,0007.16,0001.50
2023-11-05 05:10:00,SystemResetWarning,0831.2,5.00,000.00,028.4,027.3,000.0,036.8,029.8,12.4,0000.0,0002.14,0006.49,0001.50
2023-11-05 05:11:00,SystemResetWarning,0831.2,5.00,000.00,028.4,027.3,000.0,036.8,029.7,12.1,0000.0,0002.16,0006.43,0001.50
2023-11-05 05:12:00,SystemResetWarning,0831.2,5.00,000.00,028.4,027.4,000.0,036.8,029.8,12.4,0000.0,0002.15,0006.37,0001.48
2023-11-05 05:13:00,SystemResetWarning,0831.1,5.01,000.00,028.4,027.4,000.0,036.8,029.8,12.4,0000.0,0002.22,0006.99,0001.49
2023-11-05 05:14:00,SystemResetWarning,0831.1,4.99,000.00,028.4,027.4,000.0,036.8,029.8,12.4,0000.0,0002.21,0007.46,0001.49
2023-11-05 05:15:00,SystemResetWarning,0831.2,4.98,000.00,028.4,027.4,000.0,036.8,029.8,12.2,0000.0,0002.15,0006.76,0001.48
2023-11-05 05:16:00,SystemResetWarning,0831.2,5.00,000.00,028.4,027.4,000.0,036.8,029.8,12.2,0000.0,0002.16,0005.91,0001.48
2023-11-05 05:17:00,SystemResetWarning,0831.3,5.00,000.00,028.4,027.3,000.0,036.8,029.8,12.2,0000.0,0002.17,0005.85,0001.49
2023-11-05 05:18:00,SystemResetWarning,0831.3,5.01,000.00,028.4,027.4,000.0,036.8,029.8,12.2,0000.0,0002.17,0005.70,0001.51
2023-11-05 05:19:00,SystemResetWarning,0831.2,5.00,000.00,028.4,027.4,000.0,036.8,029.8,12.3,0000.0,0002.22,0005.31,0001.53
2023-11-05 05:20:00,SystemResetWarning,0831.3,4.99,000.00,028.4,027.4,000.0,036.8,029.8,12.4,0000.0,0002.30,0005.44,0001.52
2023-11-05 05:21:00,SystemResetWarning,0831.2,5.00,000.00,028.4,027.4,000.0,036.8,029.8,12.5,0000.0,0002.36,0005.86,0001.52
2023-11-05 05:22:00,SystemResetWarning,0831.2,5.00,000.00,028.4,027.4,000.0,036.8,029.8,12.5,0000.0,0002.39,0006.31,0001.53
2023-11-05 05:23:00,SystemResetWarning,0831.2,5.00,000.00,028.4,027.4,000.0,036.8,029.8,12.6,0000.0,0002.40,0008.35,0001.54
2023-11-05 05:24:00,SystemResetWarning,0831.2,5.00,000.00,028.4,027.4,000.0,036.8,029.8,12.6,0000.0,0002.34,0008.46,0001.54
2023-11-05 05:25:00,SystemResetWarning,0831.2,5.00,000.00,028.4,027.5,000.0,036.8,029.8,12.6,0000.0,0002.35,0008.54,0001.54
2023-11-05 05:26:00,SystemResetWarning,0831.3,5.00,000.00,028.4,027.5,000.0,036.8,029.8,12.5,0000.0,0002.41,0008.78,0001.55
2023-11-05 05:27:00,SystemResetWarning,0831.2,5.00,000.00,028.4,027.5,000.0,036.8,029.8,12.6,0000.0,0002.42,0008.91,0001.55
2023-11-05 05:28:00,SystemResetWarning,0831.1,5.00,000.00,028.4,027.5,000.0,036.8,029.8,12.6,0000.0,0002.49,0009.90,0001.56
2023-11-05 05:29:00,SystemResetWarning,0831.1,5.00,000.00,028.4,027.5,000.0,036.8,029.8,12.6,0000.0,0002.54,0010.30,0001.55
2023-11-05 05:30:00,SystemResetWarning,0831.1,5.00,000.00,028.4,027.5,000.0,036.8,029.8,12.6,0000.0,0002.47,0010.50,0001.54
2023-11-05 05:31:00,SystemResetWarning,0831.1,5.01,000.00,028.4,027.5,000.0,036.8,029.9,12.6,0000.0,0002.35,0010.57,0001.53
2023-11-05 05:32:00,SystemResetWarning,0831.1,5.00,000.00,028.4,027.5,000.0,036.8,029.8,12.5,0000.0,0002.27,0010.42,0001.52
2023-11-05 05:33:00,SystemResetWarning,0831.1,5.00,000.00,028.4,027.5,000.0,036.8,029.8,12.5,0000.0,0002.24,0010.22,0001.50
2023-11-05 05:34:00,SystemResetWarning,0831.2,5.01,000.00,028.5,027.5,000.0,036.8,029.8,12.4,0000.0,0002.29,0009.09,0001.50
2023-11-05 05:35:00,SystemResetWarning,0831.1,5.00,000.00,028.5,027.5,000.0,036.8,029.8,12.4,0000.0,0002.37,0009.01,0001.51
2023-11-05 05:36:00,SystemResetWarning,0831.1,5.01,000.00,028.5,027.5,000.0,036.8,029.8,12.4,0000.0,0002.40,0008.43,0001.50
2023-11-05 05:37:00,SystemResetWarning,0831.1,5.00,000.00,028.5,027.4,000.0,036.8,029.8,12.7,0000.0,0002.39,0008.45,0001.50
2023-11-05 05:38:00,SystemResetWarning,0831.1,4.99,000.00,028.4,027.4,000.0,036.8,029.8,12.5,0000.0,0002.43,0009.79,0001.50
2023-11-05 05:39:00,SystemResetWarning,0831.1,5.00,000.00,028.4,027.4,000.0,036.8,029.8,12.5,0000.0,0002.43,0009.43,0001.49
2023-11-05 05:40:00,SystemResetWarning,0831.1,5.00,000.00,028.4,027.4,000.0,036.8,029.8,12.6,0000.0,0002.40,0009.23,0001.49
2023-11-05 05:41:00,SystemResetWarning,0831.1,5.00,000.00,028.5,027.4,000.0,036.8,029.8,12.5,0000.0,0002.39,0009.00,0001.49
2023-11-05 05:42:00,SystemResetWarning,0831.1,5.00,000.00,028.5,027.5,000.0,036.8,029.8,12.5,0000.0,0002.42,0009.04,0001.50
2023-11-05 05:43:00,SystemResetWarning,0831.2,4.99,000.00,028.5,027.4,000.0,036.8,029.8,12.5,0000.0,0002.45,0009.22,0001.51
2023-11-05 05:44:00,SystemResetWarning,0831.1,5.00,000.00,028.4,027.4,000.0,036.8,029.8,12.4,0000.0,0002.46,0009.60,0001.53
2023-11-05 05:45:00,SystemResetWarning,0831.1,5.00,000.00,028.4,027.4,000.0,036.8,029.8,12.4,0000.0,0002.38,0009.49,0001.54
2023-11-05 05:46:00,SystemResetWarning,0831.0,5.01,000.00,028.4,027.3,000.0,036.8,029.7,12.4,0000.0,0002.38,0009.34,0001.55
2023-11-05 05:47:00,SystemResetWarning,0831.0,4.99,000.00,028.4,027.3,000.0,036.8,029.7,12.5,0000.0,0002.38,0009.30,0001.56
2023-11-05 05:48:00,SystemResetWarning,0830.9,5.00,000.00,028.4,027.4,000.0,036.8,029.8,12.6,0000.0,0002.40,0009.23,0001.57
2023-11-05 05:49:00,SystemResetWarning,0831.0,5.00,000.00,028.4,027.3,000.0,036.8,029.8,12.6,0000.0,0002.36,0007.95,0001.57
2023-11-05 05:50:00,SystemResetWarning,0830.9,5.00,000.00,028.4,027.3,000.0,036.8,029.8,12.6,0000.0,0002.34,0007.45,0001.56
2023-11-05 05:51:00,SystemResetWarning,0830.9,5.00,000.00,028.4,027.3,000.0,036.8,029.8,12.6,0000.0,0002.29,0006.89,0001.55
2023-11-05 05:52:00,SystemResetWarning,0830.9,5.00,000.00,028.4,027.3,000.0,036.8,029.7,12.4,0000.0,0002.29,0007.59,0001.56
2023-11-05 05:53:00,SystemResetWarning,0830.8,5.00,000.00,028.4,027.3,000.0,036.8,029.7,12.4,0000.0,0002.28,0007.67,0001.55
2023-11-05 05:54:00,SystemResetWarning,0830.8,5.00,000.00,028.4,027.3,000.0,036.8,029.7,12.3,0000.0,0002.28,0007.30,0001.55
2023-11-05 05:55:00,SystemResetWarning,0830.8,5.01,000.00,028.4,027.3,000.0,036.8,029.8,12.0,0000.0,0002.26,0006.83,0001.53
2023-11-05 05:56:00,SystemResetWarning,0830.7,5.01,000.00,028.4,027.3,000.0,036.8,029.7,11.7,0000.0,0002.30,0006.07,0001.51
2023-11-05 05:57:00,SystemResetWarning,0830.7,5.00,000.00,028.4,027.3,000.0,036.8,029.8,11.6,0000.0,0002.28,0006.08,0001.51
2023-11-05 05:58:00,SystemResetWarning,0830.7,5.00,000.00,028.4,027.2,000.0,036.8,029.7,12.2,0000.0,0002.27,0007.10,0001.50
2023-11-05 05:59:00,SystemResetWarning,0830.6,5.00,000.00,028.4,027.2,000.0,036.8,029.7,12.4,0000.0,0002.27,0007.36,0001.49
